Regional Weather Roundup
Issued by NWS Cleveland, OH

Home | Current Version | Previous Version | Text Only | Print | Product List | Glossary Off
Versions: 1 2 3 4 5 6 7 8 9 10 11 12 13 14 15 16 17 18 19 20 21 22 23 24 25 26 27 28 29 30 31 32 33 34 35 36 37 38 39 40 41 42 43 44 45 46 47 48 49 50

000
ASUS41 KCLE 211102
RWRCLE
OHIO REGIONAL WEATHER ROUNDUP
NATIONAL WEATHER SERVICE CLEVELAND, OH
700 AM EDT MON AUG 21 2017

NOTE: "FAIR" INDICATES FEW OR NO CLOUDS BELOW 12,000 FEET WITH NO
SIGNIFICANT WEATHER AND/OR OBSTRUCTIONS TO VISIBILITY.

OHZ001>008-015>018-024>027-034-035-043-044-211200-
   NORTHWEST OHIO

CITY           SKY/WX    TMP DP  RH WIND       PRES   REMARKS
DEFIANCE       CLOUDY    71  66  84 CALM      30.11R
FINDLAY        PTCLDY    69  64  84 S3        30.12R
TOLEDO EXPRESS CLOUDY    67  67 100 CALM      30.11R FOG
TOLEDO EXEC    CLOUDY    70  68  93 CALM      30.12R
LIMA           PTCLDY    69  66  90 VRB5      30.15R
$$

OHZ009>014-019>023-028>033-038-089-211200-
   NORTHEAST OHIO

CITY           SKY/WX    TMP DP  RH WIND       PRES   REMARKS
CLE-HOPKINS    MOCLDY    74  67  78 S8        30.13S
CLE-LAKEFRONT  PTCLDY    73  66  78 S9        30.09S
CUY CO. ARPT   PTCLDY    75  66  73 SW6       30.12
LORAIN-ELYRIA    N/A    N/A N/A N/A MISG      30.13R
ASHTABULA      MOCLDY    67  63  87 CALM      30.13S
AKRON-CANTON   MOCLDY    69  64  84 S7        30.15S
WOOSTER        PTCLDY    63  62  97 CALM      30.15S FOG
MANSFIELD      PTCLDY    68  67  96 S6        30.16R
YOUNGSTOWN     MOCLDY    68  62  81 S7        30.15R
$$

OHZ042-051>053-060>062-070>072-077>081-211200-
  SOUTHWEST OHIO

CITY           SKY/WX    TMP DP  RH WIND       PRES   REMARKS
CINC-COVINGTON PTCLDY    71  69  93 S5        30.16R
CINC-LUNKEN    CLEAR     69  69 100 CALM      30.16R FOG
HAMILTON       CLOUDY    69  68  96 CALM      30.16R
DAYTON         CLOUDY    73  66  78 SW8       30.16R
WRIGHT-PAT AFB CLOUDY    70  69  96 CALM      30.14R
DAYTON GENERAL CLOUDY    72  67  84 SW3       30.15R
WILMINGTON     PTCLDY    70  69  97 S3        30.16R
$$

OHZ036-037-039>041-045>050-054>059-063>069-073>076-082>088-211200-
  CENTRAL AND SOUTHEAST OHIO

CITY           SKY/WX    TMP DP  RH WIND       PRES   REMARKS
COLUMBUS       MOCLDY    72  70  93 SE5       30.15R
OSU AIRPORT    CLOUDY    73  70  90 S3        30.15R
BOLTON FIELD   NOT AVBL
RICKENBACK AFB NOT AVBL
NEWARK         MOCLDY    67  66  97 CALM      30.15S FOG
MARION         CLOUDY    68  65  90 SE3       30.15R FOG
LANCASTER      CLOUDY    69  69 100 CALM      30.16R FOG
ZANESVILLE     MOCLDY    68  66  93 CALM      30.17R
NEW PHILLY     NOT AVBL
$$




USA.gov is the U.S. government's official web portal to all federal, state and local government web resources and services.